User: anonymous
Location: Unspecified
(0.0000°N, 0.0000°E)
Time: 23:24:00
(UTC+02:00)
Language:

YAOGAN 1 - Orbit

View from above orbital plane
View from above orbital plane
View from above satellite
View from above satellite

Ground track
Ground track

The orbit data is extracted from the following two-line orbital elements,

1 29092U 06015A   14202.85441157  .00000118  00000-0  21628-4 0  1050
2 29092 097.9804 198.2511 0001490 104.4044 030.5410 14.81841506445126
Epoch (UTC): 21 July 2014 20:30:21
Eccentricity: 0.0001490
inclination: 97.9804°
perigee height: 622 km
apogee height: 624 km
right ascension of ascending node: 198.2511°
argument of perigee: 104.4044°
revolutions per day: 14.81841506
mean anomaly at epoch: 30.5410°
orbit number at epoch: 44512

The dashed part of the orbit path shows where the satellite is in the earth's shadow,  

DLR